Cloud_Cover
5 10 5 2 55 11 99 21 5 14 9 9 11 4 90 100 100 100 100 75 100 100 82 100 100 100 99 98 85 32 8 100 100 100 100 100 96 100 100 100 100 100 96 100 100 100 20 100 33
0 20 95 67 92 13 26 74 5 5 2 5 34 12 30 100 100 100 100 100 60 85 94 70 71 38 24 5 84 100 100 100 100 100 100 100 100 100 100 100 100 100 100 100 100 100 100 98 57
0 4 17 25 7 5 5 8 42 4 0 2 4 17 37 88 100 100 100 100 97 100 100 100 97 100 100 98 97 100 87 100 100 99 100 100 100 100 100 100 100 100 100 100 100 100 100 54 76
5 0 4 5 0 3 4 4 0 4 5 0 0 56 52 100 97 81 98 100 100 100 100 69 100 100 100 96 100 100 94 99 95 100 100 100 100 100 100 100 100 100 100 100 78 76 74 98 100
12 4 3 0 0 0 0 3 5 4 5 1 0 58 100 96 45 71 80 100 100 100 100 100 100 100 100 100 100 100 100 100 99 100 100 100 100 100 100 100 100 100 99 86 99 100 100 93 91
5 3 5 18 2 2 3 0 0 0 1 17 82 78 100 100 99 80 87 100 100 100 100 100 100 100 100 100 100 100 100 100 100 100 100 100 100 100 100 100 100 100 100 100 100 100 100 99 100
13 5 61 54 0 0 0 0 0 0 0 1 14 96 100 100 100 99 100 100 100 100 100 100 100 100 100 100 100 100 100 100 100 100 100 100 100 100 100 100 100 100 100 100 100 100 100 100 100
82 4 1 0 4 0 0 0 0 0 0 0 0 60 100 100 100 100 100 100 100 100 100 100 100 100 100 100 100 100 100 100 100 100 100 100 100 100 100 100 100 100 100 100 100 100 100 100 100
3 0 0 0 1 0 0 0 0 0 1 2 0 2 81 100 100 100 100 100 94 79 100 100 100 100 100 100 100 100 100 100 97 93 82 100 100 100 100 100 100 100 100 100 100 100 100 100 100
0 0 0 0 1 0 0 0 0 5 11 99 98 86 100 100 100 100 96 96 48 98 100 100 92 100 100 100 100 100 100 100 100 100 100 100 100 96 100 89 100 100 100 100 100 100 100 100 100
0 0 0 0 0 0 0 0 0 0 61 99 100 100 100 100 100 100 5 6 7 71 48 53 100 100 100 100 100 100 100 100 100 100 100 100 100 100 100 100 100 100 100 100 100 100 100 100 100
0 0 0 0 0 0 0 0 0 0 0 0 33 78 74 96 100 91 0 2 21 11 35 100 90 100 100 100 100 100 100 99 100 100 100 84 100 100 100 100 100 100 100 100 100 100 100 100 100
0 0 0 0 0 0 0 0 0 0 0 0 38 90 98 100 100 79 2 0 0 2 34 78 79 100 100 100 100 100 100 100 100 100 100 100 99 100 99 100 100 100 100 100 100 100 100 100 100
0 0 0 0 0 0 0 0 0 0 0 20 38 52 78 74 87 100 97 18 0 0 1 9 100 65 100 35 83 96 91 100 100 100 99 78 68 95 95 36 100 100 100 100 100 100 100 100 100
0 0 0 0 0 0 0 0 0 0 0 6 8 0 2 0 0 7 13 6 0 0 0 0 1 5 5 97 82 100 100 95 83 100 100 100 98 100 100 100 100 100 100 100 100 100 100 100 100
0 0 0 0 0 0 0 0 0 0 0 0 0 0 0 0 0 0 0 0 0 0 0 0 0 0 0 0 2 0 3 49 100 97 100 69 100 99 100 99 99 100 100 100 100 100 100 100 57
0 0 0 0 0 0 0 0 0 0 0 0 0 0 0 0 0 0 0 0 0 0 0 0 0 0 0 0 0 0 0 1 18 34 32 15 5 9 64 74 85 100 98 100 100 100 100 100 94
0 0 0 0 0 0 0 1 0 0 0 0 0 0 0 0 0 0 0 0 0 0 0 0 0 0 0 0 0 0 1 43 48 97 90 90 82 90 74 80 100 100 100 100 100 100 100 100 100
3 2 0 0 0 0 0 0 0 0 0 0 0 0 0 0 0 0 0 0 4 3 9 100 100 100 75 0 0 0 0 0 1 83 100 86 100 90 100 100 100 100 100 100 100 96 100 100 100
0 0 0 0 0 0 0 0 0 0 0 3 0 0 0 0 0 0 0 5 98 100 100 100 100 100 100 100 100 100 24 0 2 7 51 100 100 100 100 100 100 100 100 100 100 100 100 100 100
1 0 0 0 0 0 0 0 0 0 0 0 0 0 0 0 0 0 0 1 18 97 100 100 100 100 100 100 100 100 100 100 100 100 95 55 73 64 100 100 100 100 100 97 93 93 95 100 100
0 0 0 0 0 0 0 0 0 0 0 0 0 0 0 0 0 0 0 2 47 100 100 100 100 100 100 100 100 100 100 100 100 100 100 100 100 100 100 100 100 21 100 57 99 98 67 100 94
0 0 0 0 0 0 0 0 0 0 0 0 0 0 0 0 1 41 5 100 84 68 100 100 100 100 100 100 100 100 100 100 100 74 99 100 100 100 100 100 100 100 100 100 89 100 100 100 100
0 0 0 0 0 0 0 0 0 0 0 0 0 0 0 0 4 38 56 27 34 37 56 100 58 100 99 100 100 100 100 100 100 100 67 100 100 94 100 100 100 100 100 100 100 100 100 73 100
0 0 0 0 0 0 0 0 0 0 0 0 0 0 0 0 0 34 94 100 61 43 84 45 95 97 100 100 100 100 100 100 100 100 100 100 100 100 100 98 94 84 100 100 100 97 42 48 59
0 0 0 0 0 0 0 0 0 0 0 0 0 0 0 0 0 27 98 18 60 100 94 86 56 99 88 100 100 100 100 100 100 100 100 100 100 100 100 100 100 100 100 100 92 21 20 100 100
0 0 0 0 0 0 0 0 0 0 0 0 0 0 0 0 0 0 0 0 5 21 76 100 94 99 99 30 89 76 100 100 100 100 100 100 99 100 100 100 100 100 100 100 100 91 99 100 100
0 0 0 0 0 0 0 0 0 0 0 0 0 0 0 0 4 0 0 0 4 7 56 100 42 58 97 81 100 100 100 100 100 100 84 100 100 97 100 100 98 100 100 100 100 100 100 36 2
0 0 0 0 0 0 0 0 0 0 0 0 0 0 1 5 1 0 0 0 0 23 5 58 22 40 90 100 100 100 100 100 100 100 100 100 70 27 61 100 100 52 36 56 38 31 90 75 53
0 0 0 0 0 0 0 0 0 0 0 0 0 0 5 5 2 0 0 0 0 0 51 36 24 20 8 92 100 100 39 100 100 100 100 100 100 100 100 44 100 100 98 66 4 86 17 6 26